[[{"header":{"parameterUnit":"m.s-1","parameterCategory":1,"la1":30.2991,"la2":30.254,"lo1":-89.0895,"lo2":-89.0444,"dy":0.0017,"dx":0.0017,"nx":28,"ny":28,"refTime":"2025-05-31T21:00:00:Z","depth":0,"parameterNumber":2,"parameterNumberName":"U-component_of_WINDS"},"data":[0,0,0,0,0,0,0,0,0,0,0,0,0,0,0,0,0,0,0,0,0,0,0,0,0,0,0,0,0,0,0,0,0,0,0,0,0,0,0,0,0,0,0,0,0,0,0,0,0,0,0,0,0,0,0,0,0,0,-3.6003,-3.6003,0,-3.5972,-3.5971,-3.5971,-3.5897,-3.5896,-3.5894,-3.5893,-3.5861,-3.5862,-3.5862,0,0,0,0,0,0,0,0,0,0,0,0,0,-3.6002,-3.6002,-3.6003,-3.6003,-3.6002,-3.5972,-3.5971,-3.5971,-3.5898,-3.5896,-3.5894,-3.5892,-3.5861,-3.5862,-3.5863,0,0,0,0,0,0,0,0,0,0,0,0,0,-3.599,-3.6002,-3.6003,-3.5962,-3.5958,-3.5972,-3.5971,-3.5971,-3.5898,-3.5896,-3.5893,-3.5891,-3.5861,-3.5862,-3.5863,-3.5914,0,0,-3.5865,-3.5866,0,0,0,0,0,0,0,0,-3.599,-3.599,-3.5969,-3.5965,-3.5961,-3.5936,-3.5959,-3.5952,-3.5899,-3.5921,-3.5893,-3.589,-3.5888,-3.5887,-3.5886,-3.5912,-3.5911,-3.5865,-3.5866,-3.5866,-3.5867,0,0,0,0,0,0,0,-3.5991,-3.5991,-3.5991,-3.5968,-3.5963,-3.5946,-3.5942,-3.5957,-3.5918,-3.5919,-3.5913,-3.5911,-3.5885,-3.5885,-3.5884,-3.5911,-3.5865,-3.5866,-3.5867,-3.5867,-3.5979,-3.5981,0,0,0,0,0,0,-3.5998,-3.5992,-3.5992,-3.599,-3.597,-3.5948,-3.5943,-3.5946,-3.5917,-3.5911,-3.5913,-3.5907,-3.5885,-3.5884,-3.5883,-3.5941,-3.5866,-3.5867,-3.5868,-3.5976,-3.5979,-3.5982,0,0,0,0,0,0,-3.5998,-3.5999,-3.5993,-3.5989,-3.5987,-3.595,-3.5954,-3.5947,-3.5946,-3.5913,-3.5905,-3.5919,-3.5883,-3.5882,-3.5907,-3.5939,-3.5867,-3.5868,-3.5974,-3.5977,-3.5981,-3.6058,0,0,0,0,0,0,-3.5998,-3.5999,-3.6018,-3.599,-3.5988,-3.6017,-3.5956,-3.5948,-3.5948,-3.5941,-3.5917,-3.5911,-3.5881,-3.5906,-3.5908,-3.5939,-3.5869,-3.597,-3.5975,-3.598,-3.6053,-3.6064,-3.6074,0,0,0,0,0,-3.5999,-3.6041,-3.6019,-3.6019,-3.601,-3.6019,-3.6017,-3.5982,-3.5951,-3.5969,-3.5948,-3.5912,-3.5936,-3.5909,-3.5911,-3.5943,-3.5968,-3.5974,-3.5979,-3.6048,-3.6062,-3.6074,0,0,0,0,0,0,-3.6072,-3.6036,-3.6012,-3.6046,-3.6036,-3.6006,-3.6029,-3.5998,-3.5997,-3.599,-3.5946,-3.5942,-3.5973,-3.596,-3.5931,-3.5991,-3.5946,-3.5952,-3.5998,-3.6011,-3.6021,-3.6023,-3.587,0,0,0,0,0,-3.6093,-3.6103,-3.6071,-3.6104,-3.6101,-3.6066,-3.6068,-3.6042,-3.603,-3.6026,-3.6006,-3.5996,-3.6001,-3.6006,-3.6009,-3.6051,-3.6045,-3.6074,-3.6085,-3.6094,-3.6099,-3.6121,-3.6134,-3.6,-3.6,-3.6,0,0,-3.6135,-3.6116,-3.6125,-3.6119,-3.6108,-3.6119,-3.6063,-3.6077,-3.6086,-3.6028,-3.605,-3.6036,-3.6022,-3.6056,-3.607,-3.6047,-3.6135,-3.6101,-3.6108,-3.6108,-3.6128,-3.6141,-3.6152,-3.6004,-3.6003,-3.6003,0,0,-3.6217,-3.6204,-3.623,-3.6221,-3.6206,-3.6183,-3.619,-3.6165,-3.6153,-3.6175,-3.6132,-3.6142,-3.6152,-3.6144,-3.6142,-3.6223,-3.619,-3.6226,-3.6281,-3.6303,-3.6313,-3.6323,-3.6352,-3.6363,-3.6232,-3.6232,-3.6232,0,-3.6271,-3.6286,-3.6248,-3.6266,-3.6264,-3.6213,-3.624,-3.6233,-3.622,-3.6221,-3.6195,-3.6207,-3.6194,-3.6226,-3.6246,-3.6246,-3.6252,-3.6227,-3.6315,-3.6324,-3.6332,-3.6359,-3.637,-3.6236,-3.6236,-3.6235,-3.6235,0,-3.6353,-3.6365,-3.6388,-3.6377,-3.6378,-3.6401,-3.6367,-3.6373,-3.6348,-3.6328,-3.6352,-3.6335,-3.6334,-3.634,-3.6315,-3.6369,-3.6355,-3.6323,-3.6276,-3.6349,-3.6374,-3.6384,-3.6242,-3.6241,-3.624,-3.6238,0,0,-3.6478,-3.6447,-3.6456,-3.6451,-3.6431,-3.644,-3.6461,-3.646,-3.6466,-3.646,-3.6476,-3.6487,-3.6458,-3.6455,-3.6429,-3.6448,-3.6514,-3.6414,-3.6413,-3.6433,-3.6573,-3.6596,-3.6609,-3.6493,-3.6495,-3.6496,-3.6574,0,-3.6555,-3.6588,-3.6555,-3.6595,-3.6605,-3.6558,-3.6577,-3.6567,-3.655,-3.6557,-3.6538,-3.6546,-3.6507,-3.6505,-3.6522,-3.6503,-3.6542,-3.6497,-3.6508,-3.6508,-3.6511,-3.6622,-3.6646,-3.672,-3.6583,-3.6585,-3.6586,0,-3.6648,-3.6646,-3.6687,-3.6665,-3.6669,-3.6686,-3.6683,-3.669,-3.6679,-3.6665,-3.6663,-3.6632,-3.6652,-3.6608,-3.6635,-3.6605,-3.6608,-3.6599,-3.6601,-3.66,-3.6551,-3.6623,-3.6743,-3.6754,-3.6601,-3.66,-3.6599,0,-3.6735,-3.6742,-3.6768,-3.6765,-3.6741,-3.6754,-3.6745,-3.6731,-3.6733,-3.6732,-3.6733,-3.6733,-3.6734,-3.6735,-3.6706,-3.6676,-3.6736,-3.669,-3.6725,-3.6726,-3.6739,-3.6738,-3.686,-3.6743,-3.6743,-3.6742,-3.6742,0,-3.6823,-3.6849,-3.6806,-3.6822,-3.6851,-3.6814,-3.6844,-3.683,-3.6819,-3.6832,-3.6792,-3.6805,-3.6765,-3.6774,-3.6751,-3.6777,-3.6778,-3.6767,-3.676,-3.677,-3.6771,-3.677,-3.6764,-3.6745,-3.6745,-3.6744,-3.6744,0,-3.6923,-3.6896,-3.692,-3.6897,-3.6891,-3.6914,-3.6893,-3.6907,-3.6888,-3.6905,-3.6907,-3.6877,-3.6885,-3.6857,-3.686,-3.6845,-3.6883,-3.6868,-3.6887,-3.6882,-3.6919,-3.6915,-3.7044,-3.7059,-3.6933,-3.6934,-3.6935,0,-3.6981,-3.7,-3.6979,-3.6984,-3.6977,-3.6987,-3.6989,-3.6955,-3.6959,-3.6949,-3.6964,-3.697,-3.6972,-3.6988,-3.6967,-3.697,-3.6955,-3.7,-3.6955,-3.6964,-3.6955,-3.6953,-3.6955,-3.7008,-3.701,-3.7011,-3.7012,0,-3.7085,-3.7071,-3.7075,-3.7076,-3.708,-3.7078,-3.7074,-3.7081,-3.7045,-3.7051,-3.706,-3.7062,-3.7066,-3.7072,-3.7071,-3.7062,-3.7032,-3.7027,-3.7035,-3.7044,-3.7054,-3.7049,-3.6911,-3.7024,-3.7022,-3.7022,-3.7021,-3.7021,-3.7165,-3.7181,-3.7168,-3.7175,-3.7169,-3.7166,-3.7178,-3.7162,-3.7168,-3.7169,-3.7149,-3.7161,-3.7151,-3.7147,-3.7141,-3.7151,-3.713,-3.7142,-3.7145,-3.7149,-3.7155,-3.7054,-3.7151,-3.7151,-3.715,-3.715,-3.715,0,-3.7267,-3.7257,-3.7264,-3.726,-3.7266,-3.7237,-3.7232,-3.7238,-3.725,-3.7243,-3.7247,-3.7257,-3.7264,-3.7244,-3.7247,-3.7259,-3.7245,-3.7261,-3.7259,-3.7258,-3.7173,-3.7165,-3.7273,-3.7273,-3.7273,-3.7273,-3.7273,-3.7272,-3.732,-3.7345,-3.733,-3.7352,-3.7342,-3.7354,-3.7354,-3.7352,-3.7346,-3.7359,-3.7364,-3.7352,-3.734,-3.7343,-3.7348,-3.7342,-3.7345,-3.7366,-3.7355,-3.7276,-3.7264,-3.7252,-3.7245,-3.7367,-3.7367,-3.7438,-3.7439,-3.744]},{"header":{"parameterUnit":"m.s-1","parameterCategory":1,"la1":30.2991,"la2":30.254,"lo1":-89.0895,"lo2":-89.0444,"dy":0.0017,"dx":0.0017,"nx":28,"ny":28,"refTime":"2025-05-31T21:00:00:Z","depth":0,"parameterNumber":3,"parameterNumberName":"V-component_of_WINDS"},"data":[0,0,0,0,0,0,0,0,0,0,0,0,0,0,0,0,0,0,0,0,0,0,0,0,0,0,0,0,0,0,0,0,0,0,0,0,0,0,0,0,0,0,0,0,0,0,0,0,0,0,0,0,0,0,0,0,0,0,0.2576,0.2575,0,0.2528,0.2527,0.2527,0.2524,0.2525,0.2525,0.2526,0.2478,0.2476,0.2474,0,0,0,0,0,0,0,0,0,0,0,0,0,0.2666,0.2665,0.2576,0.2575,0.2575,0.2528,0.2527,0.2527,0.2524,0.2525,0.2526,0.2526,0.2478,0.2476,0.2474,0,0,0,0,0,0,0,0,0,0,0,0,0,0.2624,0.2664,0.2576,0.2568,0.2567,0.2528,0.2527,0.2527,0.2524,0.2525,0.2526,0.2527,0.2479,0.2476,0.2474,0.244,0,0,0.2465,0.2464,0,0,0,0,0,0,0,0,0.2626,0.262,0.257,0.2568,0.2567,0.2533,0.2541,0.2498,0.2524,0.254,0.2526,0.2527,0.2495,0.2491,0.2481,0.2438,0.2436,0.2465,0.2463,0.2462,0.2462,0,0,0,0,0,0,0,0.2629,0.2622,0.2557,0.2569,0.2567,0.2567,0.2562,0.2533,0.2514,0.2539,0.2539,0.2533,0.2495,0.2483,0.2479,0.2435,0.2465,0.2463,0.2461,0.246,0.2364,0.2363,0,0,0,0,0,0,0.2633,0.2625,0.2558,0.2555,0.2599,0.2565,0.2559,0.2543,0.2514,0.251,0.2532,0.2533,0.2487,0.2483,0.2478,0.2437,0.2462,0.246,0.2458,0.2365,0.2363,0.2362,0,0,0,0,0,0,0.2635,0.2627,0.256,0.259,0.2581,0.2562,0.2544,0.2542,0.253,0.2509,0.2506,0.2524,0.2488,0.2482,0.245,0.2435,0.2459,0.2456,0.2366,0.2364,0.2363,0.2355,0,0,0,0,0,0,0.2638,0.2628,0.2615,0.259,0.258,0.2533,0.2543,0.254,0.2525,0.2526,0.25,0.2497,0.2488,0.2454,0.2447,0.2432,0.2454,0.2367,0.2365,0.2363,0.2357,0.2354,0.2351,0,0,0,0,0,0.2641,0.2615,0.2614,0.2606,0.2563,0.2532,0.2526,0.2516,0.2524,0.2511,0.2498,0.2498,0.2438,0.2451,0.2443,0.2427,0.2368,0.2366,0.2364,0.2358,0.2354,0.2351,0,0,0,0,0,0,0.2639,0.2611,0.261,0.2575,0.2556,0.2531,0.2514,0.2513,0.2491,0.2493,0.2482,0.2476,0.2444,0.2433,0.2447,0.2394,0.2404,0.24,0.2402,0.2399,0.2396,0.2399,0.2452,0,0,0,0,0,0.2634,0.2611,0.2588,0.2559,0.255,0.2534,0.252,0.2514,0.2494,0.2486,0.247,0.2451,0.2428,0.2413,0.239,0.2355,0.235,0.2341,0.2338,0.2336,0.2333,0.2314,0.2309,0.2356,0.2356,0.2356,0,0,0.2624,0.2606,0.2592,0.2558,0.2543,0.2519,0.2527,0.2502,0.2484,0.2482,0.2451,0.2439,0.2416,0.2383,0.2368,0.2372,0.2319,0.2333,0.2332,0.2329,0.2311,0.2307,0.2303,0.2354,0.2354,0.2355,0,0,0.2594,0.2578,0.2552,0.2537,0.2513,0.2503,0.2497,0.2473,0.2465,0.2433,0.2431,0.2411,0.2371,0.2355,0.2342,0.2307,0.2307,0.23,0.2286,0.2268,0.2264,0.2261,0.2248,0.2244,0.2297,0.2297,0.2297,0,0.2585,0.2549,0.2539,0.2514,0.2499,0.2496,0.247,0.2456,0.2426,0.2416,0.2422,0.2373,0.2357,0.232,0.2312,0.2302,0.2294,0.2303,0.2265,0.2262,0.2259,0.2247,0.2242,0.2297,0.2297,0.2297,0.2297,0,0.2539,0.2514,0.2496,0.2468,0.2451,0.2426,0.2412,0.2397,0.2393,0.2382,0.2351,0.2333,0.2307,0.2298,0.2293,0.226,0.2264,0.2268,0.2278,0.2254,0.2243,0.2238,0.2296,0.2296,0.2296,0.2296,0,0,0.2505,0.2472,0.2465,0.2453,0.2427,0.2408,0.2383,0.2357,0.2344,0.2324,0.2303,0.227,0.2274,0.2259,0.2253,0.2237,0.2211,0.2243,0.2242,0.2237,0.2173,0.217,0.2165,0.221,0.2209,0.2209,0.2175,0,0.2472,0.2427,0.2418,0.2378,0.2356,0.2353,0.2331,0.2313,0.2303,0.2283,0.2271,0.2248,0.2254,0.2246,0.223,0.2217,0.2198,0.2219,0.2191,0.219,0.2196,0.2159,0.2156,0.2125,0.2171,0.217,0.2169,0,0.2427,0.2406,0.2365,0.2342,0.2332,0.2313,0.2289,0.227,0.225,0.2243,0.2227,0.2223,0.2197,0.2209,0.2174,0.2189,0.2177,0.2169,0.2168,0.2164,0.2178,0.2155,0.2115,0.2111,0.2162,0.2163,0.2163,0,0.2407,0.2368,0.2338,0.2327,0.2301,0.2287,0.2275,0.2256,0.2242,0.2221,0.2212,0.2189,0.2176,0.2158,0.2149,0.2158,0.2114,0.2125,0.2108,0.2109,0.2099,0.2099,0.2056,0.2091,0.2091,0.2092,0.2092,0,0.2371,0.2345,0.2329,0.231,0.2282,0.2273,0.2245,0.2234,0.2217,0.2196,0.2193,0.2174,0.2163,0.2142,0.2135,0.2107,0.2101,0.2095,0.2094,0.2096,0.2096,0.2087,0.2089,0.209,0.2091,0.2091,0.2091,0,0.2343,0.2331,0.2298,0.2275,0.2269,0.225,0.223,0.2213,0.2203,0.2177,0.2171,0.2155,0.2131,0.212,0.209,0.2085,0.2054,0.2053,0.206,0.2059,0.2043,0.2045,0.1993,0.1986,0.2025,0.2025,0.2025,0,0.232,0.2301,0.2276,0.2263,0.225,0.2228,0.2213,0.2203,0.2188,0.2164,0.215,0.2126,0.2106,0.2068,0.2054,0.2031,0.203,0.2014,0.2027,0.203,0.203,0.2031,0.203,0.2011,0.2011,0.2011,0.201,0,0.2282,0.2277,0.2256,0.2232,0.2215,0.2196,0.2178,0.2167,0.2154,0.2137,0.2113,0.2097,0.2067,0.2043,0.202,0.2008,0.2007,0.2006,0.2001,0.2003,0.2008,0.2005,0.2053,0.2007,0.2008,0.2008,0.2008,0.2008,0.2256,0.2239,0.2219,0.2196,0.2181,0.2164,0.2146,0.2134,0.2113,0.2088,0.2083,0.2057,0.2039,0.2007,0.1995,0.1975,0.1979,0.1971,0.1969,0.1968,0.1967,0.2011,0.197,0.197,0.1971,0.1971,0.1971,0,0.2218,0.2205,0.2183,0.2158,0.214,0.214,0.212,0.2105,0.2082,0.2064,0.2045,0.2017,0.1994,0.1979,0.1956,0.1943,0.1941,0.1937,0.1938,0.1935,0.1965,0.1971,0.1938,0.1938,0.1938,0.1938,0.1938,0.1938,0.2196,0.2166,0.2159,0.2123,0.211,0.2085,0.2073,0.2058,0.2044,0.2013,0.1993,0.1984,0.1967,0.1943,0.1922,0.1919,0.191,0.1905,0.1902,0.1929,0.1933,0.1936,0.1942,0.1904,0.1904,0.1874,0.1874,0.1873]}]]